Regional Weather Roundup
Issued by NWS

Home | Current Version | Previous Version | Text Only | Print | Product List | Glossary Off
Versions: 1 2 3 4 5 6 7 8 9 10 11 12 13 14 15 16 17 18 19 20 21 22 23 24 25 26 27 28 29 30 31 32 33 34 35 36 37 38 39 40 41 42 43 44 45 46 47 48 49 50

000
ASUS43 KMKX 242221
RWRWI

WISCONSIN REGIONAL WEATHER ROUNDUP
NATIONAL WEATHER SERVICE MILWAUKEE/SULLIVAN WI
500 PM CDT MON JUL 24 2017

NOTE: "FAIR" INDICATES FEW OR NO CLOUDS BELOW 12,000 FEET WITH NO
SIGNIFICANT WEATHER AND/OR OBSTRUCTIONS TO VISIBILITY.

WIZ001-002-006>008-014>016-023>028-242300-
NORTHWEST WISCONSIN

CITY           SKY/WX    TMP DP  RH WIND       PRES   REMARKS
SUPERIOR ARPT  NOT AVBL
ASHLAND        SUNNY     75  62  64 NE8       30.05F
HAYWARD        MOSUNNY   75  53  46 S8        30.06F
SIREN          CLOUDY    76  54  45 SE5       30.05S
CUMBERLAND     SUNNY     72  54  53 SE3       30.07S
RICE LAKE      SUNNY     75  53  46 SE5       30.07S
CHETEK         SUNNY     75  58  54 SE6       30.06S
LADYSMITH      SUNNY     76  55  47 SE5       30.08S
EAU CLAIRE     SUNNY     76  56  49 SE8       30.05F
MENOMONIE      CLOUDY    76  58  53 SE7       30.06R
NEW RICHMOND   MOSUNNY   76  58  52 SE10      30.05S
OSCEOLA        SUNNY     77  58  52 S9        30.06S
$$

WIZ003>005-009-010-017-018-242300-
NORTH CENTRAL WISCONSIN

CITY           SKY/WX    TMP DP  RH WIND       PRES   REMARKS
MANITOWISH WTR SUNNY     75  51  43 SE3       30.08S
ARBOR VITAE    SUNNY     77  54  44 S3        30.08F
WOODRUFF       SUNNY     77  54  44 S3        30.08F
RHINELANDER    SUNNY     77  51  40 VRB6      30.10S
EAGLE RIVER    SUNNY     75  45  33 S6        30.09S
LAND O LAKES   SUNNY     77  45  32 SE6       30.10S
PHILLIPS       CLOUDY    75  55  49 S6        30.07F
TOMAHAWK         N/A     75  52  44 CALM      30.09S
MEDFORD        SUNNY     73  55  52 SE6       30.08F
MERRILL        SUNNY     76  55  47 SE3       30.09S
$$

WIZ029-030-035-036-043>047-242300-
CENTRAL WISCONSIN

CITY           SKY/WX    TMP DP  RH WIND       PRES   REMARKS
WAUSAU         SUNNY     75  53  46 S8        30.07S
MOSINEE        MOSUNNY   75  55  50 SE6       30.10S
MARSHFIELD     MOSUNNY   76  55  48 SE9       30.07F
STEVENS POINT  MOSUNNY   74  52  46 SE5       30.09S
WAUPACA        SUNNY     79  49  35 E3        30.09S
WAUTOMA        SUNNY     74  55  51 VRB3      30.09R
WISC RAPIDS    SUNNY     78  55  44 SE5       30.09S
CAMP DOUGLAS   MOSUNNY   75  59  57 SE7       30.07S
$$

WIZ011>013-019>022-031-037>040-048>050-242300-
NORTHEAST WISCONSIN

CITY           SKY/WX    TMP DP  RH WIND       PRES   REMARKS
ANTIGO         MOSUNNY   73  53  49 SW3       30.10S
SHAWANO        SUNNY     77  54  45 SE5       30.09R
OCONTO         SUNNY     73  52  48 S3        30.08S
STURGEON BAY     N/A     71  56  58 SE7       30.09S
GREEN BAY      MOSUNNY   75  58  55 NE3       30.08S
MANITOWOC      SUNNY     70  45  40 NE9       30.09S
APPLETON       MOSUNNY   73  50  43 CALM      30.07F
CLINTONVILLE   SUNNY    N/A N/A N/A E3        30.09S
OSHKOSH        SUNNY     74  53  48 CALM      30.08R
$$

WIZ032>034-041-042-053>061-242300-
SOUTHWEST WISCONSIN

CITY           SKY/WX    TMP DP  RH WIND       PRES   REMARKS
LA CROSSE      MOSUNNY   77  60  55 SE6       30.05F
SPARTA         SUNNY     74  58  57 SE7       30.07S
VIROQUA        MOSUNNY   73  61  66 CALM      30.08F
BOSCOBEL       PTSUNNY   75  59  57 S5        30.07S
PRAIRIE DU CHI CLOUDY    74  58  57 E6        30.06S
PLATTEVILLE    MOSUNNY   73  62  69 E7        30.08R
$$

WIZ056-057-062-063-064-067-068-242300-
SOUTH CENTRAL WISCONSIN

CITY           SKY/WX    TMP DP  RH WIND       PRES   REMARKS
REEDSBURG      PTSUNNY   74  59  59 CALM      30.07S
BARABOO/DELLS  CLOUDY    77  53  42 SE6       30.08S
LONE ROCK      SUNNY     74  60  61 SE5       30.07S
MINERAL POINT  PTSUNNY   77  61  57 E6        30.09R
MADISON        MOSUNNY   75  57  53 SE7       30.06S
MIDDLETON      MOSUNNY   77  57  50 CALM      30.08R
WATERTOWN      SUNNY     74  57  55 E7        30.07S
MONROE         PTSUNNY   72  57  60 CALM      30.07S
JANESVILLE     MOSUNNY   77  55  47 E8        30.06S
$$

WIZ051-052-058>065-066-070>072-242300-
SOUTHEAST WISCONSIN

CITY           SKY/WX    TMP DP  RH WIND       PRES   REMARKS
MILWAUKEE      MOSUNNY   70  57  63 N14       30.08S
WAUKESHA       SUNNY     70  54  56 E9        30.09S
MILWAUKEE/TIMM SUNNY     72  46  40 NE9       30.09S
RACINE         SUNNY     69  60  73 NE10      30.10R
KENOSHA        MOSUNNY   72  59  63 VRB6      30.08R
FOND DU LAC    SUNNY     75  52  44 N8        30.08S
SHEBOYGAN      SUNNY     71  54  54 NE9       30.08F
WEST BEND      SUNNY     70  50  49 NE8       30.09R
JUNEAU         SUNNY     73  53  48 E5        30.09S
$$

LSZ147-162-242300-
LAKE SUPERIOR

STATION/POSITION TIME  TEMP    WIND        PRES    WAVE
                       AIR SEA DIR/SP/G            HT/PER
                 (UTC) (F)     (DEG/KT/KT) (MB)    (FT/S)
W MID LAKE BUOY  2150   58 54  120/  2/  2 1018.2F   0
DEVILS ISLAND    2200   61     100/  7/  7 1017.7F
SAXON HARBOR     2140   67      30/  8/  9 1017.6F
$$

LMZ867-665-643>646-242300-
LAKE MICHIGAN

STATION/POSITION TIME  TEMP    WIND        PRES    WAVE
                       AIR SEA DIR/SP/G            HT/PER
                 (UTC) (F)     (DEG/KT/KT) (MB)    (FT/S)
CHAMBERS ISLAND  2140   71      70/  5/  7 1017.9S
S GREEN BAY BUOY 2200   71 73   10/  4/  6 1018.5
N MID LAKE BUOY  2150   67 67  160/  2/  4 1018.8S   1/ 4
NORTHPORT PIER   2140   69     140/  4/  6 1018.3S
KEWAUNEE LAKESHO 2154   69      50/  4/  6 1018.4R
SHEBOYGAN LAKESH 2200   66      10/ 11/ 13 1018.4F
PORT WASHINGTON  2140   70      40/ 11/ 15 1019.3S
ATWATER BUOY     2139   67 68   20/ 12/ 14 1018.8R
MILWAUKEE LAKESH 2200   66      20/ 13/ 14   N/A
S MID LAKE BUOY  2150   67 70  360/ 14/ 16 1017.8R   4/ 6
KENOSHA   LAKESH 2200   66      30/ 14/ 17 1017.9
$$

TC  - TEMPERATURE IN CELSIUS
VSB - VISIBILITY IN STATUTE MILES
WCI - WIND CHILL INDEX
HX  - HEAT INDEX





USA.gov is the U.S. government's official web portal to all federal, state and local government web resources and services.